Location: Unspecified
(48.8656°N, 0.0000°E)
Time: 22:42:42
(UTC+00:00)

SR - Pass Details

Date: 04 July 2019
Orbit: 580 x 876 km, 66.7° (Epoch: 20 July)

Event Time Altitude Azimuth Distance (km) Brightness Sun altitude
Rises 23:12:52 0° 158° (SSE) 2,786 - -17.4°
Reaches altitude 10° 23:16:29 10° 126° (SE) 1,904 - -17.5°
Maximum altitude 23:17:57 12° 105° (ESE) 1,811 - -17.6°
Exits shadow 23:17:59 12° 105° (ESE) 1,811 ? -17.6°
Drops below altitude 10° 23:19:26 10° 85° (E) 1,930 ? -17.6°
Sets 23:23:10 0° 53° (NE) 2,884 ? -17.7°
